Regional Weather Roundup
Issued by NWS Northern Indiana

Home | Current Version | Previous Version | Text Only | Print | Product List | Glossary On
Versions: 1 2 3 4 5 6 7 8 9 10 11 12 13 14 15 16 17 18 19 20 21 22 23 24 25 26 27 28 29 30 31 32 33 34 35 36 37 38 39 40 41 42 43 44 45 46 47 48 49 50
817
ASUS43 KIWX 240710
RWRIWX

KIWX WEATHER ROUNDUP
NATIONAL WEATHER SERVICE NORTHERN INDIANA
300 AM EDT TUE OCT 24 2017

NOTE: "FAIR" INDICATES FEW OR NO CLOUDS BELOW 12,000 FEET WITH NO
SIGNIFICANT WEATHER AND/OR OBSTRUCTIONS TO VISIBILITY.

* THESE STATIONS ARE NOT UNDER NWS QUALITY CONTROL. THEY ALSO MAY NOT
  REPORT WEATHER SUCH AS PRECIPITATION OR FOG.

INZ001>027-240800-
NORTHERN INDIANA

CITY           SKY/WX    TMP DP  RH WIND       PRES   REMARKS
GARY*          LGT RAIN  51  48  90 W7        29.58F
VALPARAISO     LGT RAIN  50  48  93 W14       29.58F
MICHIGAN CITY* RAIN      50  50 100 W14G20    29.55F
LAPORTE*       RAIN      49  47  93 W13G20    29.56F
KNOX*          CLOUDY    48  46  93 W12G18    29.58S
SOUTH BEND     LGT RAIN  49  49 100 SW9       29.54F
GOSHEN         LGT RAIN  50  46  86 SW12      29.55F
MONTICELLO*    LGT RAIN  49  47  95 W9        29.62S
LOGANSPORT*    LGT RAIN  48  46  93 W12       29.62S
WARSAW*        LGT RAIN  50  46  87 W10       29.58S
AUBURN*        DRIZZLE   50  46  87 SW8       29.59F
FORT WAYNE     LGT RAIN  50  47  89 SW13      29.60S
HUNTINGTON*    DRIZZLE   49  48  97 SW7       29.60F
PERU/GRISSOM   LGT RAIN  50  50 100 W8        29.60S
MARION*        CLOUDY    48  46  93 SW10      29.62F

$$
INZ028>050-240800-
CENTRAL INDIANA

CITY           SKY/WX    TMP DP  RH WIND       PRES   REMARKS
LAFAYETTE      LGT RAIN  49  49 100 SW10G16   29.64S
KOKOMO*        LGT RAIN  48  48 100 W10       29.63S
MUNCIE*        LGT RAIN  50  47  89 S9        29.63F FOG
INDIANAPOLIS   LGT RAIN  50  47  89 W7        29.66F

$$
MIZ043>046-050>051-056>058-064>065-071>073-077>080-240800-
SOUTHWEST LOWER MICHIGAN

CITY           SKY/WX    TMP DP  RH WIND       PRES   REMARKS
BATTLE CREEK   CLOUDY    50  49  96 SW8       29.51F
BENTON HARBOR  LGT RAIN  53  48  83 W12G18    29.51F
COLDWATER*     CLOUDY    49  48  97 SW7       29.54F
HILLSDALE*     CLOUDY    46  43  87 SW9       29.54S
HOLLAND        CLOUDY    50  45  83 SW3       29.50F
GRAND RAPIDS   LGT RAIN  48  48 100 SW6       29.49F
KALAMAZOO      CLOUDY    50  46  86 SW10      29.51F
STURGIS*       CLOUDY    48  47  96 SW12      29.54F
THREE RIVERS*  CLOUDY    50  48  93 SW8       29.53F

$$
OHZ001>008-015>018-024>025-240800-
NORTHWEST OHIO

CITY           SKY/WX    TMP DP  RH WIND       PRES   REMARKS
WAUSEON*       CLOUDY    48  46  93 SW9G15    29.58S
DEFIANCE       CLOUDY    49  45  86 S10       29.59S
FINDLAY        CLOUDY    49  44  83 S9        29.61S
TOLEDO EXPRESS CLOUDY    48  47  96 SW6       29.57F
TOLEDO METCALF LGT RAIN  50  44  80 W10       29.59S
LIMA           CLOUDY    48  47  96 SW14      29.64R

$$
AND FOR LAKE MICHIGAN COASTAL AND OPEN LAKE BUOY OBSERVATIONS

STATION/POSITION TEMP    WIND        PRES    VSBY  WAVE
                 AIR SEA DIR/SP/G                  HT/PER
                 (F)     (DEG/KT/KT) (MB)    (MI)  (FT/S)
CALUMET HARBOR           250/  5/ 10 1000.7F
MICHIGAN CITY     51     250/ 28/ 31   N/A
BURNS HARBOR      52     260/ 19/ 23 1001.7F
SAINT JOSEPH      55     290/ 14/ 18 1000.0
SOUTH LAKE BUOY   54 60  320/ 16/ 19  998.7F
4 MI NW BRIDGMAN  54 58  300/ 17/ 23 1000.0          6/ 4
MICHIGAN CITY     52 57  270/ 21/ 27   N/A           6/ 4

$$
&&




USA.gov is the U.S. government's official web portal to all federal, state and local government web resources and services.